CW0565 Weather Reports


time (UTC)temp
C
wind
direction
speed
KPH
gust
KPH
rain 1hr
cm
rain 24hr
cm
rain mn
cm
humidity
%
barometer
mb
20260905200010 13 283 0.0 17.7 0.00 0.05 0.03 71 1010.9
20260905194510 13 291 1.6 4.8 0.00 0.05 0.03 71 1010.7
20260905193009 13 295 1.6 12.9 0.00 0.05 0.03 71 1010.4
20260905191512 13 309 1.6 16.1 0.00 0.05 0.03 70 1010.3
20260905190030 13 256 3.2 25.7 0.00 0.20 0.03 70 1009.9
20260905184510 14 247 1.6 17.7 0.00 0.20 0.03 69 1009.7
20260905183014 14 184 3.2 8.0 0.00 0.20 0.03 68 1009.3
20260905181515 14 335 0.0 19.3 0.00 0.20 0.03 67 1008.9
20260905180017 15 270 11.3 24.1 0.00 0.25 0.03 66 1008.8
20260905174509 15 288 6.4 16.1 0.00 0.25 0.03 65 1008.3
20260905173009 15 276 8.0 24.1 0.00 0.25 0.03 65 1008.0
20260905171508 15 294 8.0 29.0 0.00 0.25 0.03 65 1007.5
20260905170009 16 275 11.3 30.6 0.00 0.33 0.03 65 1007.2
20260905164510 16 260 12.9 29.0 0.00 0.33 0.03 64 1007.0
20260905163011 16 271 16.1 32.2 0.00 0.33 0.03 63 1006.7
20260905161510 16 274 12.9 27.4 0.00 0.33 0.03 61 1006.6
20260905160011 16 311 16.1 40.2 0.00 0.46 0.03 56 1006.3
20260905154509 17 300 20.9 37.0 0.00 0.46 0.03 53 1006.1
20260905153012 17 355 25.7 43.5 0.00 0.46 0.03 53 1006.1
20260905151509 17 311 16.1 32.2 0.00 0.46 0.03 51 1005.6
20260905150010 16 275 20.9 43.5 0.00 0.46 0.03 52 1005.3
20260905144509 16 282 27.4 45.1 0.00 0.46 0.03 53 1005.0
20260905143019 17 322 17.7 38.6 0.00 0.46 0.03 49 1004.6
20260905141510 17 284 16.1 37.0 0.00 0.46 0.03 50 1004.4
20260905140012 17 282 6.4 33.8 0.00 0.46 0.03 51 1004.2
20260905134511 17 276 14.5 38.6 0.00 0.46 0.03 52 1003.8
20260905133010 17 77 19.3 32.2 0.00 0.46 0.03 52 1003.8
20260905131518 17 289 12.9 38.6 0.00 0.46 0.03 52 1003.2
20260905130017 17 306 27.4 45.1 0.00 0.46 0.03 52 1003.0
20260905124509 17 285 25.7 38.6 0.00 0.46 0.03 52 1002.9
20260905123009 17 280 25.7 43.5 0.00 0.46 0.03 52 1002.6
20260905121509 17 299 12.9 33.8 0.00 0.46 0.03 54 1002.4
20260905120009 16 283 8.0 27.4 0.00 0.46 0.03 56 1002.3
20260905114510 16 275 19.3 33.8 0.00 0.46 0.03 56 1002.1
20260905113013 16 271 19.3 40.2 0.00 0.46 0.03 56 1002.1
20260905111510 17 315 14.5 29.0 0.00 0.46 0.03 57 1002.0
20260905110009 16 269 12.9 32.2 0.00 0.46 0.03 58 1001.5
20260905104510 16 290 17.7 32.2 0.00 0.46 0.03 59 1001.4
20260905103015 16 315 14.5 37.0 0.00 0.46 0.03 61 1001.2
20260905101509 15 277 9.7 38.6 0.00 0.46 0.03 64 1001.2
20260905100015 15 319 11.3 32.2 0.00 0.46 0.03 62 1001.0
20260905094512 16 247 6.4 27.4 0.00 0.46 0.03 65 1000.8
20260905093009 15 250 8.0 25.7 0.00 0.46 0.03 66 1000.9
20260905091510 15 250 8.0 24.1 0.00 0.46 0.03 68 1000.6
20260905090010 15 220 4.8 24.1 0.00 0.46 0.03 70 1000.5
20260905084510 14 234 9.7 22.5 0.00 0.46 0.03 73 1000.4
20260905083010 14 303 4.8 16.1 0.00 0.46 0.03 74 1000.1
20260905081510 13 271 9.7 16.1 0.00 0.46 0.03 77 1000.0
20260905080011 13 245 9.7 14.5 0.00 0.46 0.03 79 1000.0
20260905074510 12 224 3.2 16.1 0.00 0.46 0.03 82 999.8
20260905073009 12 253 9.7 19.3 0.00 0.46 0.03 83 999.8
20260905071514 12 218 8.0 16.1 0.00 0.46 0.03 83 999.7
20260905070010 12 215 9.7 16.1 0.00 0.46 0.03 84 999.5
20260905064510 12 192 4.8 16.1 0.00 0.46 0.03 87 999.7
20260905063009 11 203 3.2 11.3 0.00 0.46 0.03 87 999.3
20260905061512 11 217 4.8 16.1 0.00 0.46 0.03 87 999.5
20260905060010 11 210 4.8 14.5 0.00 0.46 0.03 88 999.4
20260905054531 11 221 4.8 16.1 0.00 0.46 0.03 88 999.4
20260905053010 11 184 1.6 9.7 0.00 0.46 0.03 87 999.4
20260905051509 11 207 0.0 11.3 0.00 0.46 0.03 87 999.4
20260905050013 11 236 6.4 14.5 0.00 0.46 0.03 88 999.4
20260905044513 11 200 4.8 12.9 0.00 0.46 0.03 88 999.3
20260905043009 11 227 6.4 24.1 0.00 0.46 0.03 86 999.2
20260905041510 11 232 12.9 22.5 0.00 0.46 0.03 87 999.1
20260905040013 11 219 11.3 20.9 0.00 0.46 0.03 86 999.1
20260905034510 11 204 8.0 19.3 0.00 0.46 0.03 86 999.1
20260905033009 10 243 6.4 17.7 0.00 0.46 0.03 90 999.2
20260905031509 10 205 1.6 9.7 0.00 0.46 0.03 92 999.1
20260905030009 10 200 0.0 0.0 0.00 0.46 0.03 92 999.0
20260905024512 10 201 0.0 11.3 0.00 0.46 0.03 92 999.0
20260905023018 10 215 1.6 6.4 0.00 0.46 0.03 94 998.8
20260905021509 10 215 0.0 9.7 0.00 0.46 0.03 95 998.8
20260905020010 10 192 3.2 6.4 0.00 0.46 0.03 95 998.7
20260905014509 10 192 0.0 0.0 0.00 0.46 0.03 95 998.7
20260905013009 10 192 0.0 6.4 0.00 0.46 0.03 95 998.5
20260905011510 10 191 0.0 6.4 0.00 0.46 0.03 95 998.5
20260905010011 10 231 1.6 6.4 0.00 0.46 0.03 95 998.3
20260905004509 10 231 0.0 4.8 0.00 0.46 0.03 96 998.2
20260905003009 10 231 1.6 4.8 0.00 0.46 0.03 95 998.1
20260905001510 10 231 0.0 4.8 0.00 0.46 0.03 95 997.9
20260905000010 10 231 0.0 4.8 0.03 0.46 0.03 94 998.2
20260904234513 10 231 0.0 3.2 0.03 0.46 0.03 93 998.2
20260904233012 10 231 0.0 4.8 0.03 0.46 0.03 92 998.1
20260904231510 10 231 0.0 3.2 0.03 0.46 0.03 91 998.0
20260904230010 11 231 0.0 0.0 0.00 0.43 0.00 90 998.1
20260904224509 11 231 0.0 1.6 0.00 0.43 0.00 89 998.0
20260904223010 11 231 1.6 6.4 0.00 0.43 0.00 90 997.9
20260904220009 11 253 1.6 4.8 0.00 0.43 0.43 90 997.7
20260904214509 11 253 0.0 0.0 0.00 0.43 0.43 88 997.4
20260904213012 11 254 0.0 6.4 0.00 0.43 0.43 88 997.2
20260904211516 11 253 0.0 6.4 0.00 0.43 0.43 87 997.2
20260904210021 11 253 1.6 6.4 0.00 0.43 0.43 86 997.2
20260904204517 11 252 4.8 12.9 0.00 0.43 0.43 86 997.4
20260904203009 11 258 4.8 12.9 0.00 0.43 0.43 87 997.3
20260904201509 12 289 0.0 8.0 0.00 0.43 0.43 88 997.2